DECAYED
Showing default

LAYAN-23, 56939 (Decayed)

Orbit data source: Space-Track

LAYAN-23, 56939 was a payload satellite owned by OQ Tech (RW) in LEO that was launched on Mon, 12 Jun 2023 UTC via an FALCON 9 launch vehicle from the Air Force Western Test Range (AFWTR). Payload-class satellites include a variety of spacecraft equipped with specific instruments for various scientific and technological missions. These include communications satellites like Starlink; space stations such as the ISS; scientific satellites like the Hubble; Earth observation satellites from companies like Planet Labs, Umbra, and HawkEye 360; GPS; miniature CubeSats for education and research; and military/defense satellites.

Not visible in the next 10 days
Identifier
56939, 2023-084H
Orbit
Decayed
Country
Flag of RWRW / RWA
Related business
Manufacturer
NanoAvionics
Mission
Decayed Commercial Communications
Bus & Motor
CUBESAT 6U, Unknown motor
Mass
~10 kg wet, ~10 kg dry
Launch date (UTC)
2023-06-12 (3 years ago)
Launch vehicle
FALCON 9
Launch site
Air Force Western Test Range (AFWTR)
Object type
Payload
Rocket body
Debris
Shape & HBR
Box + 2 Pan, 0.1 m
Radar Cross Section
0.080 m², Medium (>0.1 m² and < 1m²)

Expand to show TLE details & history
Last TLE update: 6 months ago

TLE from 6 months ago
0 LAYAN-23
1 56939U 23084H   25297.58599004  .11093191  26922-5  53693-3 0  9994
2 56939  97.5301  93.0937 0010286 230.3658 129.6736 16.42064991133197
Epoch: 2025-10-24T14:03Z
TLE epoch observation values (Epoch: 2025-10-24T14:03:49.539Z)
Latitude
0.00006°
Longitude
-151.09149°
Altitude
167.864 km
Speed
7.803 km/s
True Right ascension
06h 12m 22s
True Declination
0° 00' 00"
Sunlit
Object was in full shadow at epoch
Visualization orbit readout
Latitude
Unknown
Longitude
Unknown
Altitude
Unknown
Speed
Unknown
Apparent Right ascension
Unknown
Apparent Declination
Unknown
Sunlit
N/A
Visualization observer readout
Local Sidereal Time
09:26:06
Azimuth
Unknown
Elevation
Unknown
Doppler factor
Unknown
Orbital elements
Apogee altitude
163.848 km
Perigee altitude
150.404 km
Semi-major axis
6,535.263 km
Eccentricity
0.00103
Inclination
97.5301°
RAAN
93.0937°
Arg. of periapsis
230.3658°
True anomaly
129.76425°
Mean anomaly
129.6736°
Eccentric anomaly
129.71893°
Mean motion
4.10817 °/min
Orbital period
87.63 mins
BSTAR
0.00053693
Loading maneuver chart data...
Computing Atmospheric mass density...

Documentation

Showing up to 5 results
|